Location: Newark
(50.1751°N, 5.6239°W)
Time: 13:40:06
(UTC+00:00)

ISS - Pass Details

Date: 02 October 2021
Orbit: 417 x 423 km, 51.6° (Epoch: 28 October)

Event Time Altitude Azimuth Distance (km) Brightness Sun altitude
Rises 19:02:40 0° 287° (WNW) 2,367 2.0 -11.1°
Reaches altitude 10° 19:04:47 10° 282° (WNW) 1,501 0.6 -11.5°
Maximum altitude 19:08:04 51° 206° (SSW) 538 -3.1 -12.0°
Enters shadow 19:10:30 16° 134° (SE) 1,168 -2.0 -12.4°
